sat.trackr.live / text

‹ back to catalog

GEESAT-5 11

NORAD 65560 · 2025-201L

PAYLOAD ACTIVE UNKNOWN

§ Identity

Operator
Country
PRC
Launch date
2025-09-08
Launch site
YSLA
Launch vehicle
Mass (kg)
RCS (m²)

External: N2YO · Heavens-Above · Gunter

§ Orbital elements

Epoch: 2026-05-24T23:26:06.925056Z

Period
97.03 min
Inclination
49.9861°
Eccentricity
0.0009105
Mean motion
14.84078443 rev/d
Perigee alt
610.1 km
Apogee alt
622.8 km
Semi-major
6,994.6 km
B*
1.7124e-4
RAAN
146.5397°
Arg perigee
255.2543°
Mean anomaly
104.7386°
Rev number
3,837

§ Raw data

GEESAT-5 111 65560U 25201L   26144.97646904  .00001216  00000+0  17124-3 0  99912 65560  49.9861 146.5397 0009105 255.2543 104.7386 14.84078443 38370

JSON: /api/v1/satellites/65560 · /tle

For live sub-satellite position, see the globe view (requires WebGL).

§ Visibility from observer

Set your observer location to see the next 7 days of passes ≥ 10°. The values pass through the URL so the page stays shareable.

No JS? Fill the form by hand. The geolocation button needs JavaScript.